Location: Fairlight Knoll
(50.8333°N, 0.6833°E)
Time: 05:39:52
(UTC+00:00)

Daily predictions for brighter satellites

Satellite Brightness Start Highest point End
(mag) Time Altitude Azimuth Time Altitude Azimuth Time Altitude Azimuth
ATLAS 3B R/B 4.4 02:45:14 27° ENE 02:45:14 27° ENE 02:48:56 10° E
CENTAUR R/B 4.1 03:15:46 40° SE 03:15:46 40° SE 03:20:52 10° SE
SJ 16-02 4.4 03:24:46 12° ENE 03:24:46 12° ENE 03:25:27 10° ENE
ATLAS 2AS CENTAUR R/B 4.1 03:33:38 28° SSE 03:36:47 38° ESE 03:43:52 10° NE
Cosmos 2227 Rocket 4.5 03:42:47 15° NNE 03:42:47 15° NNE 03:43:49 10° NNE
Lacrosse 5 3.9 03:41:28 23° ESE 03:41:28 23° ESE 03:44:19 10° ENE
Cosmos 2344 4.4 03:43:18 48° NNW 03:46:06 65° NE 03:58:04 10° ESE
CZ-4C R/B 4.0 03:59:29 19° SE 04:01:30 24° ESE 04:06:03 10° ENE
Cosmos 2297 Rocket 4.3 04:15:52 16° N 04:15:52 16° N 04:17:18 10° NNE
Cosmos 2263 Rocket 2.4 04:27:33 61° NNE 04:27:33 61° NNE 04:32:17 10° NNE
RESURS DK-1 4.4 04:28:16 17° SSE 04:30:24 26° ESE 04:33:55 10° NE
ALOS 2.7 04:26:02 10° NNE 04:30:26 60° E 04:30:26 60° E
ATLAS CENTAUR R/B 2.8 04:35:02 31° ESE 04:35:02 31° ESE 04:37:16 10° SE
ATLAS 3B R/B 2.6 04:32:31 60° NW 04:33:58 90° NE 04:41:10 10° SE
SKYMED 2 4.3 04:32:42 10° SE 04:36:53 50° ENE 04:37:28 47° NE
FENGYUN 3A 3.7 04:34:59 10° NNE 04:40:26 76° ESE 04:45:50 10° S
Meteor 1-26 Rocket 4.1 04:43:49 58° NNW 04:44:59 81° W 04:50:36 10° S
Cosmos 2082 Rocket 4.4 04:43:49 11° N 04:47:14 18° NNE 04:51:08 10° ENE
Cosmos 1833 Rocket 4.4 04:52:04 14° N 04:55:52 27° NE 05:00:35 10° E
Cosmos 990 Rocket 4.4 04:50:53 10° S 04:56:02 61° ESE 05:01:15 10° NNE
ARGOS Delta rocket 3.8 04:52:54 10° N 04:57:57 68° WNW 04:57:57 68° WNW
Cosmos 923 Rocket 4.5 04:59:44 44° SW 04:59:44 44° SW 05:03:48 10° S
SJ 16-02 1.8 05:01:49 49° N 05:01:49 49° N 05:05:13 10° NNE
FALCON 9 DEB 4.4 05:01:32 37° ESE 05:01:32 37° ESE 05:03:53 10° ENE
CENTAUR R/B 4.0 05:03:01 29° WSW 05:03:01 29° WSW 05:09:27 10° SSW
Meteor 2-3 Rocket 3.6 05:01:22 10° SSW 05:07:06 72° WNW 05:12:56 10° N
NOSS 3-4 (A) 3.3 05:05:37 44° WSW 05:07:38 72° NW 05:14:07 10° NE
NOSS 3-4 (C) 3.3 05:05:42 43° WSW 05:07:46 73° NW 05:14:16 10° NE
USA 307 3.1 05:07:39 57° N 05:07:52 57° N 05:12:08 10° E
Genesis I 3.9 05:09:41 30° S 05:11:17 51° SE 05:15:03 10° NE
COSMOS 2406 4.5 05:07:05 14° NNW 05:11:29 37° NE 05:16:49 10° ESE
Meteor 1-10 Rocket 4.5 05:08:32 10° N 05:14:06 68° ENE 05:19:41 10° SSE
USA 308 3.1 05:13:48 54° NNW 05:14:17 59° N 05:18:33 10° E
Nadezhda 3 Rocket 4.4 05:08:15 10° N 05:14:32 64° ENE 05:20:43 10° SSE
Lacrosse 4 Rocket 3.9 05:19:58 11° SSW 05:19:58 11° SSW 05:20:05 10° SSW
METEOR-M 4.0 05:11:38 10° N 05:16:58 71° WNW 05:22:16 10° SSW
FALCON 9 DEB 3.4 05:18:26 61° NNE 05:18:26 61° NNE 05:21:45 10° E
Cosmos 1743 Rocket 4.0 05:13:57 10° S 05:18:21 63° E 05:22:48 10° NNE
CZ-4B R/B 3.4 05:13:59 10° NNE 05:18:30 70° ESE 05:22:53 10° S
Cosmos 1408 Rocket 3.4 05:15:04 10° SSW 05:19:31 72° WNW 05:23:59 10° N
CRYOSAT 2 4.3 05:17:27 10° S 05:22:15 59° W 05:27:05 10° N
Lacrosse 5 1.8 05:20:42 38° WSW 05:22:40 86° NNW 05:27:45 10° ENE
Cosmos 1862 3.9 05:18:42 10° S 05:22:40 58° E 05:26:41 10° NNE
ERBS 3.6 05:24:19 29° N 05:24:19 29° N 05:26:43 10° NE
Cosmos 2227 Rocket 4.1 05:24:37 14° NNW 05:24:37 14° NNW 05:27:05 10° N
COSMO-SKYMED 1 2.6 05:20:39 10° S 05:24:55 57° W 05:26:03 43° NW
Cosmos 1680 Rocket 3.9 05:25:39 39° W 05:26:10 40° WSW 05:31:05 10° S
ATLAS 2AS CENTAUR R/B 3.0 05:21:09 18° SW 05:27:27 73° NW 05:35:16 10° NE
Cosmos 405 Rocket 3.1 05:26:52 10° S 05:30:30 60° E 05:34:14 10° NNE
Cosmos 2181 Rocket 4.3 05:25:05 11° NNW 05:30:38 41° W 05:36:18 10° SSW
Meteor 1-31 Rocket 3.1 05:27:31 10° N 05:30:36 43° NW 05:30:36 43° NW
Cosmos 1812 2.6 05:29:40 24° N 05:31:57 88° WSW 05:35:48 10° S
Cosmos 1709 Rocket 4.5 05:27:36 10° SW 05:33:29 38° WNW 05:39:23 10° N
FALCON 9 DEB 3.0 05:33:58 58° SW 05:34:28 74° SSE 05:37:41 10° ENE
FALCON 9 DEB 3.0 05:34:39 55° SW 05:35:12 72° SSE 05:38:26 10° ENE
Cosmos 1805 Rocket 4.5 05:33:02 10° S 05:37:20 51° E 05:41:41 10° NNE
USA 305 3.0 05:40:58 35° WNW 05:42:38 67° NNE 05:46:56 10° E
EO 1 Delta rocket 3.7 05:39:02 10° S 05:43:55 74° W 05:48:33 10° NNW
Cosmos 2154 Rocket 4.1 05:37:58 10° S 05:44:11 82° E 05:50:30 10° NNE
ADEOS 3.9 05:39:26 10° N 05:44:20 41° WNW 05:49:12 10° SW
Cosmos 1844 Rocket 2.6 05:38:47 10° SSW 05:44:28 87° WNW 05:50:12 10° NNE
SL-4 R/B 1.7 05:44:20 39° WNW 05:45:42 82° N 05:49:23 10° E
Cosmos 1782 4.4 05:47:19 20° SW 05:47:19 20° SW 05:49:04 10° SW
deb Chang Zheng 4 3.8 05:41:45 10° N 05:45:53 44° WNW 05:50:01 10° SW
CZ-4C R/B 2.1 05:44:44 14° SW 05:49:15 73° NW 05:55:33 10° NE
Meteor PRIRODA 3.6 05:45:57 10° N 05:49:39 61° WNW 05:53:20 10° SSW
Aureole 2 Rocket 1.9 05:48:04 10° SSW 05:50:35 68° ESE 05:53:09 10° NNE
Cosmos 1689 Rocket 3.9 05:48:17 10° SSW 05:49:22 18° SW 05:49:22 18° SW
USA 306 3.0 05:49:08 30° WNW 05:51:09 71° NNE 05:55:27 10° E
EXPRESS MD2 4.1 05:55:41 26° W 05:57:46 59° SSW 06:04:41 10° ESE
FALCON 9 DEB 2.8 05:56:50 30° WSW 05:58:17 88° NNW 06:01:32 10° ENE
Cosmos 1898 Rocket 3.6 05:53:26 10° SW 05:58:38 53° WNW 06:03:54 10° NNE
Cosmos 2297 Rocket 4.3 05:58:09 10° NNW 05:59:05 10° NNW 06:00:03 10° N
H-2A R/B 2.6 05:56:15 10° N 06:00:10 75° WNW 06:04:03 10° SSW
Envisat 3.3 05:55:51 10° NNE 06:00:57 72° ESE 06:06:02 10° S
Cosmos 1844 3.6 05:56:02 10° SSW 06:01:36 81° WNW 06:07:14 10° NNE
SJ-12 4.4 05:57:58 10° N 06:01:41 35° WNW 06:05:23 10° SW
Cosmos 2327 Rocket 4.4 05:56:00 10° SSW 06:02:05 75° W 06:08:13 10° N
NOSS 7 (H) 3.9 05:59:41 15° SW 06:02:11 73° NW 06:05:06 10° NE
BREEZE-M DEB (TANK) 3.8 06:00:27 16° SW 06:02:31 40° SSE 06:07:17 10° E
EP 3 4.0 06:03:31 42° N 06:03:31 42° N 06:05:00 10° NE
Cosmos 2074 Rocket 4.1 05:57:44 10° SSW 06:03:46 51° WNW 06:09:50 10° N
CZ-4B DEB 4.5 05:58:53 10° NNE 06:04:21 73° ESE 06:09:49 10° S
NOSS 7 (E) 4.3 06:01:03 10° SW 06:04:38 80° SE 06:07:42 10° NE
MOS 1 Rocket 3.5 06:01:31 10° S 06:06:19 58° W 06:11:27 10° NNW
BREEZE M DEB (TANK) 4.0 06:00:32 10° SW 06:06:38 33° SSE 06:09:13 10° E
Cosmos 1437 Rocket 2.7 06:03:21 12° NNW 06:06:48 55° W 06:10:28 10° S
ALOS 3.4 06:04:13 10° N 06:07:44 21° WNW 06:08:55 19° W
RESURS DK-1 2.7 06:04:19 10° WSW 06:08:16 42° NW 06:12:15 10° NNE
Cosmos 1633 Rocket 4.3 06:05:56 10° SSE 06:10:09 45° E 06:14:22 10° NNE
Cosmos 2228 Rocket 3.5 06:06:41 10° NNW 06:10:47 39° W 06:14:52 10° SSW
Cosmos 2263 Rocket 3.4 06:09:17 18° WNW 06:11:23 22° NW 06:15:47 10° NNE
ATLAS CENTAUR R/B 2.8 06:11:14 17° WSW 06:11:55 18° WSW 06:14:34 10° SSW
Cosmos 1295 Rocket 4.4 06:06:45 10° SSW 06:12:50 78° W 06:18:58 10° N
ATLAS 5 CENTAUR R/B 3.5 06:09:15 10° S 06:12:54 32° ESE 06:16:57 10° ENE
COSMOS 2455 3.1 06:07:45 10° SSW 06:13:47 77° ESE 06:19:51 10° NE
Cosmos 1937 Rocket 3.6 06:08:59 10° SW 06:14:01 53° WNW 06:19:09 10° NNE
CZ-2C R/B 2.8 06:12:54 10° SSE 06:18:22 81° ENE 06:23:44 10° NNW
SL-24 DEB 4.3 06:16:35 10° S 06:21:17 60° W 06:26:03 10° N
Cosmos 494 Rocket 4.1 06:17:15 10° NNW 06:22:27 76° ENE 06:27:34 10° SSE
Cosmos 2184 Rocket 4.4 06:16:41 10° SW 06:22:36 41° WNW 06:28:38 10° N
Cosmos 1707 Rocket 3.5 06:18:19 10° NNW 06:22:39 71° W 06:26:57 10° S
ATLAS 3B R/B 3.8 06:19:48 15° WNW 06:23:58 25° WSW 06:29:34 10° SSW
Cosmos 1048 Rocket 4.0 06:25:15 10° NNW 06:30:31 68° WSW 06:35:40 10° SSE
Cosmos 1500 Rocket 4.4 06:28:17 10° SW 06:32:00 27° WNW 06:35:44 10° N
Cosmos 1125 Rocket 4.4 06:27:02 10° S 06:32:06 54° ESE 06:37:10 10° NNE
Cosmos 2082 Rocket 2.7 06:26:51 10° NNW 06:32:32 62° NE 06:38:11 10° SE
Cosmos 2150 Rocket 4.3 06:28:38 10° SSW 06:33:55 76° ESE 06:39:10 10° NNE
CZ-4B R/B 3.4 06:28:40 10° NNE 06:34:02 75° ESE 06:39:28 10° S
Cosmos 2298 Rocket 4.2 06:29:33 10° SSW 06:34:51 83° ESE 06:40:11 10° NNE
YAOGAN 6 2.8 06:33:18 10° N 06:36:40 44° WNW 06:39:59 10° SW
FALCON 9 DEB 3.0 06:33:50 12° W 06:36:43 62° N 06:39:55 10° ENE
SJ 16-02 3.2 06:38:52 11° WNW 06:40:16 13° NW 06:42:17 10° NNW
Cosmos 1833 Rocket 2.7 06:34:45 10° NNW 06:40:24 76° WSW 06:46:00 10° SSE
Okean O Rocket 1.7 06:36:43 10° NNE 06:41:11 88° ESE 06:45:39 10° SSW
DMSP B5D2-2 4.1 06:39:47 10° SSE 06:45:01 80° WSW 06:50:16 10° NNW
H-2A R/B 2.5 06:42:03 10° N 06:45:47 47° WNW 06:49:27 10° SW
USA 307 3.0 06:43:49 10° WNW 06:48:04 73° SSW 06:52:22 10° ESE
Genesis I 4.2 06:45:43 10° W 06:49:04 28° NW 06:52:28 10° NNE
Sich 1 3.4 06:45:58 10° SW 06:50:12 43° WNW 06:54:27 10° N
CZ-4 R/B 3.8 06:46:39 10° NE 06:50:18 28° E 06:53:57 10° SSE
Cosmos 1470 Rocket 4.0 06:46:50 10° S 06:51:12 67° E 06:55:33 10° NNE
Cosmos 1939 Rocket 3.7 06:47:10 10° NNE 06:51:12 57° E 06:55:15 10° S
CZ-4B R/B 4.5 06:49:58 10° NNW 06:53:04 19° WNW 06:56:07 10° WSW
Meteor 1-27 Rocket 4.4 06:49:05 10° NNW 06:54:16 35° W 06:59:31 10° SSW
USA 229 DEB 4.3 06:47:13 10° NW 06:54:18 60° NE 07:01:47 10° ESE
USA 229 4.3 06:47:19 10° NW 06:54:23 59° NE 07:01:52 10° ESE
USA 308 3.1 06:50:10 10° WNW 06:54:27 68° SSW 06:58:44 10° SE
FALCON 9 DEB 3.5 06:51:54 10° WNW 06:55:19 55° SSW 06:58:43 10° SE
COSMOS 2406 3.6 06:50:28 10° NW 06:56:00 50° WSW 07:01:31 10° S
Cosmos 1356 3.8 06:52:54 10° SW 06:56:09 40° WNW 06:59:24 10° N
SL-24 R/B 4.4 06:53:26 10° NNE 06:58:17 86° ESE 07:02:41 10° SSW
USA 234 3.7 06:52:15 10° ENE 06:58:48 68° SE 07:05:19 10° SW
ATLAS 5 CENTAUR R/B 3.2 06:58:05 10° NW 06:59:08 11° NNW 07:00:01 10° N
USA 290 2.5 06:55:58 10° NNW 06:59:16 73° ENE 07:02:31 10° SSE
NOSS 3-4 (A) 4.4 06:54:07 10° WNW 06:59:36 32° NNW 07:05:32 10° NE
NOSS 3-4 (C) 4.4 06:54:14 10° WNW 06:59:43 32° NNW 07:05:40 10° NE
SMAP 3.1 06:55:16 10° N 06:59:51 57° WNW 07:04:24 10° SSW
NOAA 12 4.1 06:55:06 10° N 07:00:21 67° WNW 07:05:33 10° SSW
Cosmos 2278 Rocket 2.4 06:57:02 10° SSW 07:02:41 81° ESE 07:08:24 10° NNE
Cosmos 2218 Rocket 4.0 06:56:45 10° SSW 07:03:00 77° W 07:09:14 10° N
